This is the latest recevied weather packets stored in our database for station/object DG8SF-13. If no packets are shown the sender has not sent any weather packets the latest 10 day(s).
| Time | Temp. | Humidity | Pressure | Rain* | Wind** | Luminosity | Snow |
|---|---|---|---|---|---|---|---|
| 1777478241 | 18.33° C | 29% | 1019.8 hPa | 0 mm | - | - | - |
| 1777477929 | 17.78° C | 27% | 1020 hPa | 0 mm | - | - | - |
| 1777477616 | 18.33° C | 27% | 1019.9 hPa | 0 mm | - | - | - |
| 1777477304 | 18.33° C | 28% | 1020 hPa | 0 mm | - | - | - |
| 1777476995 | 18.33° C | 28% | 1019.9 hPa | 0 mm | - | - | - |
| 1777476679 | 18.33° C | 28% | 1019.9 hPa | 0 mm | - | - | - |
| 1777476371 | 18.89° C | 28% | 1019.8 hPa | 0 mm | - | - | - |
| 1777476057 | 19.44° C | 29% | 1019.8 hPa | 0 mm | - | - | - |
| 1777475745 | 18.89° C | 29% | 1019.6 hPa | 0 mm | - | - | - |
| 1777475432 | 18.89° C | 29% | 1019.7 hPa | 0 mm | - | - | - |
| 1777475125 | 18.89° C | 30% | 1019.8 hPa | 0 mm | - | - | - |
| 1777474809 | 19.44° C | 31% | 1019.8 hPa | 0 mm | - | - | - |
| 1777474497 | 18.33° C | 30% | 1019.7 hPa | 0 mm | - | - | - |
| 1777474190 | 18.33° C | 31% | 1019.8 hPa | 0 mm | - | - | - |
| 1777473874 | 19.44° C | 31% | 1019.7 hPa | 0 mm | - | - | - |
| 1777473560 | 18.89° C | 31% | 1019.8 hPa | 0 mm | - | - | - |
| 1777473248 | 18.89° C | 30% | 1019.7 hPa | 0 mm | - | - | - |
| 1777472939 | 18.89° C | 30% | 1019.8 hPa | 0 mm | - | - | - |
| 1777472623 | 18.33° C | 29% | 1019.9 hPa | 0 mm | - | - | - |
| 1777472313 | 18.89° C | 31% | 1019.8 hPa | 0 mm | - | - | - |
| 1777472001 | 18.89° C | 30% | 1019.9 hPa | 0 mm | - | - | - |
| 1777471690 | 18.33° C | 29% | 1019.9 hPa | 0 mm | - | - | - |
| 1777471376 | 18.89° C | 30% | 1019.7 hPa | 0 mm | - | - | - |
| 1777471066 | 18.33° C | 30% | 1019.8 hPa | 0 mm | - | - | - |
| 1777470757 | 18.89° C | 29% | 1019.9 hPa | 0 mm | - | - | - |
* Rain latest hour (hover to see other rain measurements)
** Current wind speed in m/s (hover to see current wind gust speed)